Zurück zum Katalog

STARLINK-34475

AktivKommunikationVLEO
NORAD 64603·PAYLOAD·🇺🇸 United States

Gestartet Jun 25, 2025 von Cape Canaveral Space Force Station

Loading…

Nächste Überflüge (nächste 24 Stunden)

TLE

AktuellSource: CelesTrak SupGP

Epoche: Sep 14, 2026, 23:06 UTC

1 64603C 25137K   26257.96298611 -.00079741  00000+0 -24186-2 0  2570
2 64603  53.1581 173.8251 0001326  89.7857 330.6772 15.33602443    17

Verfolge STARLINK-34475 in Echtzeit mit AllMySat

Download on the App Store